Location: Bonac
(42.8765°N, 0.9753°E)
Time: 10:42:16
(UTC+00:00)

NOSS 3-4 (A) - Pass Details

Date: 12 January 2026
Orbit: 769 x 1442 km, 63.4° (Epoch: 10 January)

Event Time Altitude Azimuth Distance (km) Brightness Sun altitude
Rises 17:29:55 0° 187° (S) 3,226 6.7 -8.5°
Reaches altitude 10° 17:32:27 10° 178° (S) 2,302 5.7 -8.9°
Maximum altitude 17:37:04 33° 115° (ESE) 1,303 3.9 -9.7°
Enters shadow 17:41:28 12° 55° (NE) 2,277 4.8 -10.5°
